Time,TemperatureF,DewpointF,PressureIn,WindDirection,WindDirectionDegrees,WindSpeedMPH,WindSpeedGustMPH,Humidity,HourlyPrecipIn,Conditions,Clouds,dailyrainin,SoftwareType,DateUTC
2013-03-29 00:03:00,47.0,31.0,30.35,NNW,329,0.0,0.0,53,0.00,,,0.00,,2013-03-29 04:03:00,
2013-03-29 00:13:00,47.0,31.0,30.35,NNW,329,0.0,0.0,53,0.00,,,0.00,,2013-03-29 04:13:00,
2013-03-29 00:22:00,46.0,30.0,30.35,NNW,329,0.0,0.0,54,0.00,,,0.00,,2013-03-29 04:22:00,
2013-03-29 00:33:00,46.0,30.0,30.35,NNW,329,0.0,0.0,54,0.00,,,0.00,,2013-03-29 04:33:00,
2013-03-29 00:43:00,46.0,30.0,30.35,NNW,329,0.0,0.0,54,0.00,,,0.00,,2013-03-29 04:43:00,
2013-03-29 00:53:00,46.0,31.0,30.35,NNW,329,0.0,0.0,55,0.00,,,0.00,,2013-03-29 04:53:00,
2013-03-29 01:03:00,46.0,31.0,30.35,NNW,329,0.0,0.0,55,0.00,,,0.00,,2013-03-29 05:03:00,
2013-03-29 01:13:00,46.0,31.0,30.35,NNW,329,0.0,0.0,55,0.00,,,0.00,,2013-03-29 05:13:00,
2013-03-29 01:23:00,45.0,30.0,30.35,NNW,329,0.0,0.0,56,0.00,,,0.00,,2013-03-29 05:23:00,
2013-03-29 01:33:00,45.0,30.0,30.35,NNW,329,0.0,0.0,56,0.00,,,0.00,,2013-03-29 05:33:00,
2013-03-29 01:43:00,45.0,30.0,30.35,NNW,329,0.0,0.0,56,0.00,,,0.00,,2013-03-29 05:43:00,
2013-03-29 01:52:00,45.0,30.0,30.35,NNW,329,0.0,0.0,56,0.00,,,0.00,,2013-03-29 05:52:00,
2013-03-29 02:02:00,45.0,30.0,30.35,NNW,329,0.0,0.0,56,0.00,,,0.00,,2013-03-29 06:02:00,
2013-03-29 02:13:00,45.0,30.0,30.35,NNW,329,0.0,0.0,56,0.00,,,0.00,,2013-03-29 06:13:00,
2013-03-29 02:23:00,44.0,30.0,30.35,NNW,329,0.0,0.0,57,0.00,,,0.00,,2013-03-29 06:23:00,
2013-03-29 02:32:00,44.0,30.0,30.35,NNW,329,0.0,0.0,57,0.00,,,0.00,,2013-03-29 06:32:00,
2013-03-29 02:42:00,44.0,30.0,30.35,NNW,329,0.0,0.0,57,0.00,,,0.00,,2013-03-29 06:42:00,
2013-03-29 02:52:00,44.0,30.0,30.35,NNW,329,0.0,0.0,58,0.00,,,0.00,,2013-03-29 06:52:00,
2013-03-29 03:03:00,44.0,30.0,30.35,NNW,329,0.0,0.0,58,0.00,,,0.00,,2013-03-29 07:03:00,
2013-03-29 03:12:00,44.0,30.0,30.35,NNW,329,0.0,0.0,58,0.00,,,0.00,,2013-03-29 07:12:00,
2013-03-29 03:22:00,44.0,31.0,30.35,NNW,329,0.0,1.0,59,0.00,,,0.00,,2013-03-29 07:22:00,
2013-03-29 03:32:00,44.0,31.0,30.35,NNW,329,0.0,1.0,59,0.00,,,0.00,,2013-03-29 07:32:00,
2013-03-29 03:42:00,44.0,31.0,30.35,NNW,329,0.0,1.0,59,0.00,,,0.00,,2013-03-29 07:42:00,
2013-03-29 03:52:00,44.0,31.0,30.35,NNW,329,0.0,0.0,59,0.00,,,0.00,,2013-03-29 07:52:00,
2013-03-29 04:02:00,44.0,31.0,30.35,NNW,329,0.0,0.0,59,0.00,,,0.00,,2013-03-29 08:02:00,
2013-03-29 04:12:00,44.0,31.0,30.35,NNW,329,0.0,0.0,59,0.00,,,0.00,,2013-03-29 08:12:00,
2013-03-29 04:22:00,43.0,31.0,30.34,NNW,329,0.0,0.0,62,0.00,,,0.00,,2013-03-29 08:22:00,
2013-03-29 04:32:00,43.0,31.0,30.34,NNW,329,0.0,0.0,62,0.00,,,0.00,,2013-03-29 08:32:00,
2013-03-29 04:42:00,43.0,31.0,30.34,NNW,329,0.0,0.0,62,0.00,,,0.00,,2013-03-29 08:42:00,
2013-03-29 04:53:00,41.0,30.0,30.34,NNW,329,0.0,0.0,65,0.00,,,0.00,,2013-03-29 08:53:00,
2013-03-29 05:02:00,41.0,30.0,30.34,NNW,329,0.0,0.0,65,0.00,,,0.00,,2013-03-29 09:02:00,
2013-03-29 05:13:00,41.0,30.0,30.34,NNW,329,0.0,0.0,65,0.00,,,0.00,,2013-03-29 09:13:00,
2013-03-29 05:22:00,40.0,30.0,30.34,NNW,329,0.0,0.0,67,0.00,,,0.00,,2013-03-29 09:22:00,
2013-03-29 05:33:00,40.0,30.0,30.34,NNW,329,0.0,0.0,67,0.00,,,0.00,,2013-03-29 09:33:00,
2013-03-29 05:43:00,40.0,30.0,30.34,NNW,329,0.0,0.0,67,0.00,,,0.00,,2013-03-29 09:43:00,
2013-03-29 05:52:00,40.0,31.0,30.34,NNW,329,0.0,0.0,69,0.00,,,0.00,,2013-03-29 09:52:00,
2013-03-29 06:03:00,40.0,31.0,30.34,NNW,329,0.0,0.0,69,0.00,,,0.00,,2013-03-29 10:03:00,
2013-03-29 06:12:00,40.0,31.0,30.34,NNW,329,0.0,0.0,69,0.00,,,0.00,,2013-03-29 10:12:00,
2013-03-29 06:23:00,39.0,29.0,30.34,NNW,329,0.0,0.0,68,0.00,,,0.00,,2013-03-29 10:23:00,
2013-03-29 06:33:00,39.0,29.0,30.34,NNW,329,0.0,0.0,68,0.00,,,0.00,,2013-03-29 10:33:00,
2013-03-29 06:42:00,39.0,29.0,30.34,NNW,329,0.0,0.0,68,0.00,,,0.00,,2013-03-29 10:42:00,
2013-03-29 06:53:00,40.0,30.0,30.34,NNW,329,0.0,0.0,68,0.00,,,0.00,,2013-03-29 10:53:00,
2013-03-29 07:03:00,40.0,30.0,30.34,NNW,329,0.0,0.0,68,0.00,,,0.00,,2013-03-29 11:03:00,
2013-03-29 07:12:00,40.0,30.0,30.34,NNW,329,0.0,0.0,68,0.00,,,0.00,,2013-03-29 11:12:00,
2013-03-29 07:23:00,41.0,31.0,30.35,NNW,329,0.0,0.0,66,0.00,,,0.00,,2013-03-29 11:23:00,
2013-03-29 07:33:00,41.0,31.0,30.35,NNW,329,0.0,0.0,66,0.00,,,0.00,,2013-03-29 11:33:00,
2013-03-29 07:43:00,41.0,31.0,30.35,NNW,329,0.0,0.0,66,0.00,,,0.00,,2013-03-29 11:43:00,
2013-03-29 07:53:00,40.0,29.0,30.35,NNW,329,0.0,0.0,65,0.00,,,0.00,,2013-03-29 11:53:00,
2013-03-29 08:03:00,40.0,29.0,30.35,NNW,329,0.0,0.0,65,0.00,,,0.00,,2013-03-29 12:03:00,
2013-03-29 08:13:00,40.0,29.0,30.35,NNW,329,0.0,0.0,65,0.00,,,0.00,,2013-03-29 12:13:00,
2013-03-29 08:22:00,40.0,30.0,30.36,NNW,329,0.0,0.0,66,0.00,,,0.00,,2013-03-29 12:22:00,
2013-03-29 08:32:00,40.0,30.0,30.36,NNW,329,0.0,0.0,66,0.00,,,0.00,,2013-03-29 12:32:00,
2013-03-29 08:43:00,40.0,30.0,30.36,NNW,329,0.0,0.0,66,0.00,,,0.00,,2013-03-29 12:43:00,
2013-03-29 08:53:00,42.0,31.0,30.37,NNW,329,0.0,1.0,64,0.00,,,0.00,,2013-03-29 12:53:00,
2013-03-29 09:03:00,42.0,31.0,30.37,NNW,329,0.0,1.0,64,0.00,,,0.00,,2013-03-29 13:03:00,
2013-03-29 09:13:00,42.0,31.0,30.37,NNW,329,0.0,1.0,64,0.00,,,0.00,,2013-03-29 13:13:00,
2013-03-29 09:23:00,44.0,32.0,30.38,ENE,59,0.0,3.0,62,0.00,,,0.00,,2013-03-29 13:23:00,
2013-03-29 09:32:00,44.0,32.0,30.38,ENE,59,0.0,3.0,62,0.00,,,0.00,,2013-03-29 13:32:00,
2013-03-29 09:43:00,44.0,32.0,30.38,ENE,59,0.0,3.0,62,0.00,,,0.00,,2013-03-29 13:43:00,
2013-03-29 09:53:00,44.0,32.0,30.38,ENE,59,0.0,3.0,62,0.00,,,0.00,,2013-03-29 13:53:00,
2013-03-29 10:03:00,44.0,32.0,30.38,ENE,59,0.0,3.0,62,0.00,,,0.00,,2013-03-29 14:03:00,
2013-03-29 10:22:00,51.0,30.0,30.38,ESE,103,1.0,7.0,45,0.00,,,0.00,,2013-03-29 14:22:00,
2013-03-29 10:33:00,51.0,30.0,30.38,ESE,103,1.0,7.0,45,0.00,,,0.00,,2013-03-29 14:33:00,
2013-03-29 10:42:00,51.0,30.0,30.38,ESE,103,1.0,7.0,45,0.00,,,0.00,,2013-03-29 14:42:00,
2013-03-29 10:53:00,55.0,31.0,30.37,SSW,205,1.0,4.0,39,0.00,,,0.00,,2013-03-29 14:53:00,
2013-03-29 11:02:00,55.0,31.0,30.37,SSW,205,1.0,4.0,39,0.00,,,0.00,,2013-03-29 15:02:00,
2013-03-29 11:12:00,55.0,31.0,30.37,SSW,205,1.0,4.0,39,0.00,,,0.00,,2013-03-29 15:12:00,
2013-03-29 11:22:00,56.0,30.0,30.38,ESE,105,1.0,4.0,37,0.00,,,0.00,,2013-03-29 15:22:00,
2013-03-29 11:33:00,56.0,30.0,30.38,ESE,105,1.0,4.0,37,0.00,,,0.00,,2013-03-29 15:33:00,
2013-03-29 11:43:00,56.0,30.0,30.38,ESE,105,1.0,4.0,37,0.00,,,0.00,,2013-03-29 15:43:00,
2013-03-29 11:53:00,59.0,31.0,30.37,ESE,108,0.0,3.0,35,0.00,,,0.00,,2013-03-29 15:53:00,
2013-03-29 12:03:00,59.0,31.0,30.37,ESE,108,0.0,3.0,35,0.00,,,0.00,,2013-03-29 16:03:00,
2013-03-29 12:13:00,59.0,31.0,30.37,ESE,108,0.0,3.0,35,0.00,,,0.00,,2013-03-29 16:13:00,
2013-03-29 12:23:00,60.0,30.0,30.36,ENE,65,1.0,4.0,32,0.00,,,0.00,,2013-03-29 16:23:00,
2013-03-29 12:33:00,60.0,30.0,30.36,ENE,65,1.0,4.0,32,0.00,,,0.00,,2013-03-29 16:33:00,
2013-03-29 12:43:00,60.0,30.0,30.36,ENE,65,1.0,4.0,32,0.00,,,0.00,,2013-03-29 16:43:00,
2013-03-29 12:53:00,63.0,31.0,30.35,ESE,113,1.0,4.0,30,0.00,,,0.00,,2013-03-29 16:53:00,
2013-03-29 13:03:00,63.0,31.0,30.35,ESE,113,1.0,4.0,30,0.00,,,0.00,,2013-03-29 17:03:00,
2013-03-29 13:12:00,63.0,31.0,30.35,ESE,113,1.0,4.0,30,0.00,,,0.00,,2013-03-29 17:12:00,
2013-03-29 13:23:00,64.0,31.0,30.34,SE,128,2.0,4.0,29,0.00,,,0.00,,2013-03-29 17:23:00,
2013-03-29 13:33:00,64.0,31.0,30.34,SE,128,2.0,4.0,29,0.00,,,0.00,,2013-03-29 17:33:00,
2013-03-29 13:43:00,64.0,31.0,30.34,SE,128,2.0,4.0,29,0.00,,,0.00,,2013-03-29 17:43:00,
2013-03-29 13:53:00,66.0,33.0,30.32,West,269,1.0,8.0,29,0.00,,,0.00,,2013-03-29 17:53:00,
2013-03-29 14:02:00,66.0,33.0,30.32,West,269,1.0,8.0,29,0.00,,,0.00,,2013-03-29 18:02:00,
2013-03-29 14:13:00,66.0,33.0,30.32,West,269,1.0,8.0,29,0.00,,,0.00,,2013-03-29 18:13:00,
2013-03-29 14:23:00,66.0,33.0,30.31,WSW,251,1.0,5.0,29,0.00,,,0.00,,2013-03-29 18:23:00,
2013-03-29 14:32:00,66.0,33.0,30.31,WSW,251,1.0,5.0,29,0.00,,,0.00,,2013-03-29 18:32:00,
2013-03-29 14:43:00,66.0,33.0,30.31,WSW,251,1.0,5.0,29,0.00,,,0.00,,2013-03-29 18:43:00,
2013-03-29 14:53:00,68.0,32.0,30.29,NW,305,4.0,8.0,26,0.00,,,0.00,,2013-03-29 18:53:00,
2013-03-29 15:02:00,68.0,32.0,30.29,NW,305,4.0,8.0,26,0.00,,,0.00,,2013-03-29 19:02:00,
2013-03-29 15:12:00,68.0,34.0,30.27,NW,312,1.0,9.0,28,0.00,,,0.00,,2013-03-29 19:12:00,
2013-03-29 15:23:00,68.0,34.0,30.27,NW,312,1.0,9.0,28,0.00,,,0.00,,2013-03-29 19:23:00,
2013-03-29 15:33:00,68.0,34.0,30.27,NW,312,1.0,9.0,28,0.00,,,0.00,,2013-03-29 19:33:00,
2013-03-29 15:43:00,68.0,34.0,30.27,NW,312,1.0,9.0,28,0.00,,,0.00,,2013-03-29 19:43:00,
2013-03-29 15:53:00,68.0,34.0,30.25,West,265,2.0,8.0,28,0.00,,,0.00,,2013-03-29 19:53:00,
2013-03-29 16:02:00,68.0,34.0,30.25,West,265,2.0,8.0,28,0.00,,,0.00,,2013-03-29 20:02:00,
2013-03-29 16:12:00,68.0,34.0,30.25,West,265,2.0,8.0,28,0.00,,,0.00,,2013-03-29 20:12:00,
2013-03-29 16:22:00,65.0,34.0,30.24,SSE,161,0.0,3.0,32,0.00,,,0.00,,2013-03-29 20:22:00,
2013-03-29 16:42:00,65.0,34.0,30.24,SSE,161,0.0,3.0,32,0.00,,,0.00,,2013-03-29 20:42:00,
2013-03-29 16:52:00,64.0,34.0,30.24,WSW,254,0.0,5.0,32,0.00,,,0.00,,2013-03-29 20:52:00,
2013-03-29 17:02:00,64.0,34.0,30.24,WSW,254,0.0,5.0,32,0.00,,,0.00,,2013-03-29 21:02:00,
2013-03-29 17:12:00,64.0,34.0,30.24,WSW,254,0.0,5.0,32,0.00,,,0.00,,2013-03-29 21:12:00,
2013-03-29 17:22:00,65.0,34.0,30.24,NW,324,1.0,3.0,32,0.00,,,0.00,,2013-03-29 21:22:00,
2013-03-29 17:33:00,65.0,34.0,30.24,NW,324,1.0,3.0,32,0.00,,,0.00,,2013-03-29 21:33:00,
2013-03-29 17:43:00,65.0,34.0,30.24,NW,324,1.0,3.0,32,0.00,,,0.00,,2013-03-29 21:43:00,
2013-03-29 17:53:00,66.0,34.0,30.23,West,271,1.0,5.0,31,0.00,,,0.00,,2013-03-29 21:53:00,
2013-03-29 18:03:00,66.0,34.0,30.23,West,271,1.0,5.0,31,0.00,,,0.00,,2013-03-29 22:03:00,
2013-03-29 18:13:00,66.0,34.0,30.23,West,271,1.0,5.0,31,0.00,,,0.00,,2013-03-29 22:13:00,
2013-03-29 18:23:00,66.0,35.0,30.22,West,271,1.0,3.0,32,0.00,,,0.00,,2013-03-29 22:23:00,
2013-03-29 18:33:00,66.0,35.0,30.22,West,271,1.0,3.0,32,0.00,,,0.00,,2013-03-29 22:33:00,
2013-03-29 18:43:00,66.0,35.0,30.22,West,271,1.0,3.0,32,0.00,,,0.00,,2013-03-29 22:43:00,
2013-03-29 18:54:00,65.0,35.0,30.22,West,271,0.0,3.0,33,0.00,,,0.00,,2013-03-29 22:54:00,
2013-03-29 19:03:00,65.0,35.0,30.22,West,271,0.0,3.0,33,0.00,,,0.00,,2013-03-29 23:03:00,
2013-03-29 19:12:00,65.0,35.0,30.22,West,271,0.0,3.0,33,0.00,,,0.00,,2013-03-29 23:12:00,
2013-03-29 19:22:00,64.0,37.0,30.23,West,271,1.0,4.0,36,0.00,,,0.00,,2013-03-29 23:22:00,
2013-03-29 19:32:00,64.0,37.0,30.23,West,271,1.0,4.0,36,0.00,,,0.00,,2013-03-29 23:32:00,
2013-03-29 19:43:00,64.0,37.0,30.23,West,271,1.0,4.0,36,0.00,,,0.00,,2013-03-29 23:43:00,
2013-03-29 19:53:00,61.0,35.0,30.23,NNE,16,0.0,3.0,38,0.00,,,0.00,,2013-03-29 23:53:00,
2013-03-29 20:03:00,61.0,35.0,30.23,NNE,16,0.0,3.0,38,0.00,,,0.00,,2013-03-30 00:03:00,
2013-03-29 20:12:00,61.0,35.0,30.23,NNE,16,0.0,3.0,38,0.00,,,0.00,,2013-03-30 00:12:00,
2013-03-29 20:22:00,59.0,35.0,30.23,NNE,18,0.0,1.0,40,0.00,,,0.00,,2013-03-30 00:22:00,
2013-03-29 20:32:00,59.0,35.0,30.23,NNE,18,0.0,1.0,40,0.00,,,0.00,,2013-03-30 00:32:00,
2013-03-29 20:43:00,59.0,35.0,30.23,NNE,18,0.0,1.0,40,0.00,,,0.00,,2013-03-30 00:43:00,
2013-03-29 20:53:00,58.0,34.0,30.24,NNE,18,0.0,1.0,41,0.00,,,0.00,,2013-03-30 00:53:00,
2013-03-29 21:03:00,58.0,34.0,30.24,NNE,18,0.0,1.0,41,0.00,,,0.00,,2013-03-30 01:03:00,
2013-03-29 21:13:00,58.0,34.0,30.24,NNE,18,0.0,1.0,41,0.00,,,0.00,,2013-03-30 01:13:00,
2013-03-29 21:22:00,57.0,34.0,30.24,NNE,18,0.0,1.0,41,0.00,,,0.00,,2013-03-30 01:22:00,
2013-03-29 21:33:00,57.0,34.0,30.24,NNE,18,0.0,1.0,41,0.00,,,0.00,,2013-03-30 01:33:00,
2013-03-29 21:43:00,57.0,34.0,30.24,NNE,18,0.0,1.0,41,0.00,,,0.00,,2013-03-30 01:43:00,
2013-03-29 21:53:00,57.0,34.0,30.24,NNE,22,0.0,3.0,42,0.00,,,0.00,,2013-03-30 01:53:00,
2013-03-29 22:03:00,57.0,34.0,30.24,NNE,22,0.0,3.0,42,0.00,,,0.00,,2013-03-30 02:03:00,
2013-03-29 22:13:00,57.0,34.0,30.24,NNE,22,0.0,3.0,42,0.00,,,0.00,,2013-03-30 02:13:00,
2013-03-29 22:22:00,57.0,35.0,30.24,NNE,22,0.0,1.0,43,0.00,,,0.00,,2013-03-30 02:22:00,
2013-03-29 22:33:00,57.0,35.0,30.24,NNE,22,0.0,1.0,43,0.00,,,0.00,,2013-03-30 02:33:00,
2013-03-29 22:43:00,57.0,35.0,30.24,NNE,22,0.0,1.0,43,0.00,,,0.00,,2013-03-30 02:43:00,
2013-03-29 22:53:00,56.0,35.0,30.24,NNE,21,0.0,1.0,45,0.00,,,0.00,,2013-03-30 02:53:00,
2013-03-29 23:03:00,56.0,35.0,30.24,NNE,21,0.0,1.0,45,0.00,,,0.00,,2013-03-30 03:03:00,
2013-03-29 23:12:00,56.0,34.0,30.24,NNE,22,0.0,1.0,44,0.00,,,0.00,,2013-03-30 03:12:00,
2013-03-29 23:22:00,56.0,34.0,30.24,NNE,22,0.0,1.0,44,0.00,,,0.00,,2013-03-30 03:22:00,
2013-03-29 23:33:00,56.0,34.0,30.24,NNE,22,0.0,1.0,44,0.00,,,0.00,,2013-03-30 03:33:00,
2013-03-29 23:43:00,56.0,34.0,30.24,NNE,22,0.0,1.0,44,0.00,,,0.00,,2013-03-30 03:43:00,
2013-03-29 23:53:00,56.0,34.0,30.24,ESE,109,0.0,3.0,44,0.00,,,0.00,,2013-03-30 03:53:00,